Ely, MN

3:46 PM CDT on May 25, 2017 (GMT -0500)
Ely Municipal

Weather History for KELO - November, 2011

Change the Weather History Date:

Saturday, November 12, 2011

  Actual Average Record
Temperature  
Mean Temperature 38 °F -  
Max Temperature 53 °F 35 °F 55 °F (2016)
Min Temperature 23 °F 21 °F 5 °F (1996)
Degree Days  
Heating Degree Days 27    
Moisture  
Dew Point 26 °F    
Average Humidity 69    
Maximum Humidity 93    
Minimum Humidity 35    
Precipitation  
Precipitation 0.00 in - - ()
Sea Level Pressure  
Sea Level Pressure 29.44 in    
Wind  
Wind Speed 3 mph (SE)    
Max Wind Speed 12 mph    
Max Gust Speed 18 mph    
Visibility 10 miles    
Events      
Averages and records for this station are not official NWS values.
T = Trace of Precipitation, MM = Missing Value Source: NWS Daily Summary

Daily Weather History Graph

Daily Weather History Graph

Search for Another Location

Airport or City:

Trip Planner

Search our weather history database for the weather conditions in past years. The results will help you decide how hot, cold, wet, or windy it might be!

Date:

Astronomy

Nov. 12, 2011 Rise Set
Actual Time 7:08 AM CST 4:34 PM CST
Civil Twilight 6:34 AM CST 5:07 PM CST
Nautical Twilight 5:57 AM CST 5:44 PM CST
Astronomical Twilight 5:21 AM CST 6:21 PM CST
Moon 5:41 PM CST (11/12) 8:59 AM CST (11/12)
Length of Visible Light 10h 32m
Length of Day
9h 25m
Full, 97% of the Moon is Illuminated
Nov 12
Full
Nov 18
Last Quarter
Nov 25
New
Dec 2
First Quarter
Dec 10
Full

Hourly Weather History & Observations

Time (CST) Temp. Windchill Dew Point Humidity Pressure Visibility Wind Dir Wind Speed Gust Speed Precip Events Conditions
12:12 AM 26.6 °F 20.0 °F 23.0 °F 86% 29.50 in 10.0 mi SSW 5.8 mph - N/A   Clear
12:33 AM 28.4 °F - 23.0 °F 80% 29.49 in 10.0 mi Calm Calm - N/A   Scattered Clouds
12:53 AM 26.6 °F - 23.0 °F 86% 29.49 in 10.0 mi Calm Calm - N/A   Scattered Clouds
1:12 AM 24.8 °F - 21.2 °F 86% 29.49 in 10.0 mi Calm Calm - N/A   Scattered Clouds
1:33 AM 24.8 °F - 21.2 °F 86% 29.49 in 10.0 mi Calm Calm - N/A   Clear
1:52 AM 24.8 °F - 21.2 °F 86% 29.50 in 10.0 mi Calm Calm - N/A   Clear
2:12 AM 23.0 °F - 21.2 °F 93% 29.50 in 10.0 mi Calm Calm - N/A   Scattered Clouds
2:33 AM 24.8 °F - 21.2 °F 86% 29.51 in 10.0 mi Calm Calm - N/A   Clear
2:53 AM 23.0 °F - 19.4 °F 86% 29.50 in 10.0 mi Calm Calm - N/A   Scattered Clouds
3:12 AM 23.0 °F - 21.2 °F 93% 29.50 in 10.0 mi Calm Calm - N/A   Mostly Cloudy
3:33 AM 24.8 °F - 21.2 °F 86% 29.49 in 10.0 mi Calm Calm - N/A   Mostly Cloudy
3:52 AM 24.8 °F - 21.2 °F 86% 29.49 in 10.0 mi Calm Calm - N/A   Overcast
4:13 AM 28.4 °F 24.6 °F 24.8 °F 86% 29.48 in 10.0 mi ESE 3.5 mph - N/A   Overcast
4:33 AM 28.4 °F - 24.8 °F 86% 29.49 in 10.0 mi Calm Calm - N/A   Overcast
4:52 AM 26.6 °F - 24.8 °F 93% 29.49 in 10.0 mi Calm Calm - N/A   Mostly Cloudy
5:13 AM 26.6 °F - 23.0 °F 86% 29.49 in 10.0 mi Calm Calm - N/A   Clear
5:33 AM 24.8 °F - 21.2 °F 86% 29.49 in 10.0 mi Calm Calm - N/A   Clear
5:52 AM 24.8 °F - 21.2 °F 86% 29.49 in 10.0 mi Calm Calm - N/A   Clear
6:13 AM 24.8 °F - 21.2 °F 86% 29.49 in 10.0 mi Calm Calm - N/A   Clear
6:32 AM 24.8 °F 20.5 °F 21.2 °F 86% 29.50 in 10.0 mi SE 3.5 mph - N/A   Clear
6:53 AM 26.6 °F - 23.0 °F 86% 29.50 in 10.0 mi Calm Calm - N/A   Clear
7:12 AM 26.6 °F - 23.0 °F 86% 29.49 in 10.0 mi Calm Calm - N/A   Clear
7:33 AM 24.8 °F - 23.0 °F 93% 29.49 in 10.0 mi Calm Calm - N/A   Clear
7:52 AM 26.6 °F - 24.8 °F 93% 29.49 in 10.0 mi Calm Calm - N/A   Clear
8:12 AM 28.4 °F - 24.8 °F 86% 29.49 in 10.0 mi Calm Calm - N/A   Clear
8:33 AM 30.2 °F 26.7 °F 26.6 °F 86% 29.48 in 10.0 mi SE 3.5 mph - N/A   Clear
8:52 AM 33.8 °F - 28.4 °F 81% 29.47 in 10.0 mi Calm Calm - N/A   Clear
9:12 AM 35.6 °F 32.8 °F 28.4 °F 75% 29.47 in 10.0 mi SE 3.5 mph - N/A   Clear
9:33 AM 39.2 °F 35.9 °F 28.4 °F 65% 29.48 in 10.0 mi SSE 4.6 mph - N/A   Clear
9:52 AM 41.0 °F 37.1 °F 30.2 °F 65% 29.47 in 10.0 mi SSE 5.8 mph - N/A   Clear
10:13 AM 42.8 °F 39.3 °F 30.2 °F 61% 29.47 in 10.0 mi SSE 5.8 mph - N/A   Clear
10:33 AM 44.6 °F 40.2 °F 28.4 °F 53% 29.47 in 10.0 mi SSE 8.1 mph - N/A   Clear
10:52 AM 46.4 °F 44.3 °F 28.4 °F 50% 29.46 in 10.0 mi SSE 4.6 mph - N/A   Clear
11:13 AM 48.2 °F - 28.4 °F 46% 29.46 in 10.0 mi South 8.1 mph - N/A   Clear
11:33 AM 48.2 °F - 28.4 °F 46% 29.45 in 10.0 mi SSE 8.1 mph - N/A   Clear
11:52 AM 50.0 °F - 28.4 °F 43% 29.44 in 10.0 mi SSE 9.2 mph - N/A   Clear
12:13 PM 50.0 °F - 28.4 °F 43% 29.44 in 10.0 mi South 10.4 mph - N/A   Clear
12:33 PM 51.8 °F - 28.4 °F 41% 29.43 in 10.0 mi SSE 11.5 mph - N/A   Clear
12:52 PM 51.8 °F - 28.4 °F 41% 29.41 in 10.0 mi SSE 10.4 mph - N/A   Clear
1:13 PM 53.6 °F - 28.4 °F 38% 29.39 in 10.0 mi SE 8.1 mph - N/A   Clear
1:32 PM 53.6 °F - 26.6 °F 35% 29.39 in 10.0 mi SSE 5.8 mph - N/A   Clear
1:52 PM 53.6 °F - 26.6 °F 35% 29.38 in 10.0 mi SSE 11.5 mph - N/A   Clear
2:13 PM 51.8 °F - 26.6 °F 38% 29.38 in 10.0 mi SSE 8.1 mph - N/A   Clear
2:33 PM 51.8 °F - 28.4 °F 41% 29.37 in 10.0 mi SSE 6.9 mph - N/A   Clear
2:52 PM 51.8 °F - 26.6 °F 38% 29.36 in 10.0 mi SE 6.9 mph - N/A   Clear
3:13 PM 48.2 °F - 26.6 °F 43% 29.36 in 10.0 mi SSE 9.2 mph 18.4 mph N/A   Scattered Clouds
3:33 PM 48.2 °F - 28.4 °F 46% 29.35 in 10.0 mi SE 10.4 mph - N/A   Scattered Clouds
3:53 PM 46.4 °F 41.5 °F 28.4 °F 50% 29.34 in 10.0 mi SE 10.4 mph - N/A   Clear
4:13 PM 44.6 °F 38.8 °F 28.4 °F 53% 29.33 in 10.0 mi SE 11.5 mph - N/A   Clear
4:32 PM 42.8 °F 39.3 °F 30.2 °F 61% 29.33 in 10.0 mi SE 5.8 mph - N/A   Clear
4:53 PM 42.8 °F 38.6 °F 30.2 °F 61% 29.32 in 10.0 mi ESE 6.9 mph - N/A   Clear
5:13 PM 41.0 °F 36.4 °F 30.2 °F 65% 29.31 in 10.0 mi ESE 6.9 mph - N/A   Clear
5:32 PM 39.2 °F 35.0 °F 30.2 °F 70% 29.31 in 10.0 mi SE 5.8 mph - N/A   Clear
5:53 PM 39.2 °F 34.2 °F 30.2 °F 70% 29.30 in 10.0 mi ESE 6.9 mph - N/A   Clear
6:13 PM 39.2 °F 35.0 °F 30.2 °F 70% 29.28 in 10.0 mi SE 5.8 mph - N/A   Clear
6:32 PM 39.2 °F 33.0 °F 30.2 °F 70% 29.27 in 10.0 mi SE 9.2 mph - N/A   Clear
6:53 PM 39.2 °F 33.6 °F 30.2 °F 70% 29.26 in 10.0 mi SE 8.1 mph - N/A   Clear
7:13 PM 39.2 °F 34.2 °F 30.2 °F 70% 29.24 in 10.0 mi ESE 6.9 mph - N/A   Clear
7:32 PM 41.0 °F 37.1 °F 30.2 °F 65% 29.23 in 10.0 mi ESE 5.8 mph - N/A   Clear
7:53 PM 39.2 °F 35.9 °F 30.2 °F 70% 29.23 in 10.0 mi SE 4.6 mph - N/A   Clear
8:12 PM 41.0 °F 36.4 °F 28.4 °F 61% 29.22 in 10.0 mi SE 6.9 mph - N/A   Clear
8:33 PM 42.8 °F 38.0 °F 30.2 °F 61% 29.22 in 10.0 mi SSE 8.1 mph - N/A   Clear
8:53 PM 42.8 °F 37.0 °F 30.2 °F 61% 29.21 in 10.0 mi SSE 10.4 mph - N/A   Clear
9:13 PM 42.8 °F 37.5 °F 30.2 °F 61% 29.19 in 10.0 mi SSE 9.2 mph - N/A   Clear
9:33 PM 42.8 °F 37.5 °F 30.2 °F 61% 29.19 in 10.0 mi South 9.2 mph - N/A   Clear
9:53 PM 42.8 °F 37.0 °F 30.2 °F 61% 29.17 in 10.0 mi SSE 10.4 mph - N/A   Clear
10:12 PM 44.6 °F 39.7 °F 30.2 °F 57% 29.16 in 10.0 mi South 9.2 mph 16.1 mph N/A   Clear
10:33 PM 44.6 °F 40.2 °F 30.2 °F 57% 29.16 in 10.0 mi South 8.1 mph - N/A   Clear
10:53 PM 46.4 °F 41.1 °F 32.0 °F 57% 29.15 in 10.0 mi South 11.5 mph 18.4 mph N/A   Clear
11:13 PM 46.4 °F 41.5 °F 33.8 °F 62% 29.14 in 10.0 mi South 10.4 mph 18.4 mph N/A   Clear
11:32 PM 44.6 °F 39.2 °F 33.8 °F 66% 29.13 in 10.0 mi South 10.4 mph - N/A   Clear
11:53 PM 44.6 °F 40.7 °F 33.8 °F 66% 29.12 in 10.0 mi South 6.9 mph - N/A   Clear